Stations météo

réclame
Mon MeteoGroup
Shobdon, Grande-Bretagne (3520): Température de l'air & dewpoint: 14.09.2018 17:00:00 - 20.09.2018 17:00:00 (BST)Shobdon, Grande-Bretagne (3520): Température de l'air -20cm & Température de l'air -100cm: 14.09.2018 17:00:00 - 20.09.2018 17:00:00 (BST)Shobdon, Grande-Bretagne (3520): Vitesse du vent & gusts: 14.09.2018 17:00:00 - 20.09.2018 17:00:00 (BST)Shobdon, Grande-Bretagne (3520): Direction du vent: 14.09.2018 17:00:00 - 20.09.2018 17:00:00 (BST)Shobdon, Grande-Bretagne (3520): reduced air pressure: 14.09.2018 17:00:00 - 20.09.2018 17:00:00 (BST)Shobdon, Grande-Bretagne (3520): visibility: 14.09.2018 17:00:00 - 20.09.2018 17:00:00 (BST)Shobdon, Grande-Bretagne (3520): Ensoleillement: 14.09.2018 17:00:00 - 20.09.2018 17:00:00 (BST)Shobdon, Grande-Bretagne (3520): Quantités de précipitations: 14.09.2018 17:00:00 - 20.09.2018 17:00:00 (BST)
Date & Time tt [°C] td [°C] tt -20cm [°C] tt -100cm [°C] ff [km/h] ff [knt] fx [km/h] fx [knt] dd ppp [hPa] vv [km] sd [min] rr [mm]
20.09.2018 17:00:00 17,8 16,4 - - 22 12 - - SW 1001,2 15 0 1,6
20.09.2018 16:00:00 17,6 16,4 - - 21 11 - - SSW 1001,9 5 0 1,4
20.09.2018 15:00:00 17,5 16,6 - - 22 12 - - SSW 1002,6 22 0 0,6
20.09.2018 14:00:00 13,7 13,5 - - 8 4 - - E 1004,2 5 0 1,0
20.09.2018 13:00:00 13,1 12,9 - - 9 5 - - ESE 1006,1 5 0 1,8
20.09.2018 12:00:00 12,6 12,4 - - 9 5 - - ESE 1007,9 3,2 0 3,6
20.09.2018 11:00:00 12,1 11,8 - - 4 2 - - E 1009,2 3,3 0 2,4
20.09.2018 10:00:00 11,7 11,5 15,7 15,7 9 5 - - ESE 1009,9 11 0 1,2
20.09.2018 09:00:00 11,4 11,3 - - 4 2 - - E 1010,6 14 0 0,0
20.09.2018 08:00:00 11,0 10,9 - - 4 2 - - E 1010,5 10 0 0,2
20.09.2018 07:00:00 10,9 10,7 - - 0 0 - - N 1010,8 10 0 0,0
20.09.2018 06:00:00 10,8 10,6 - - 0 0 - - N 1010,8 7 0 1,6
20.09.2018 05:00:00 10,8 10,5 - - 4 2 - - SE 1010,8 6 0 1,8
20.09.2018 04:00:00 10,8 10,4 - - 4 2 - - S 1011,3 10 0 0,4
20.09.2018 03:00:00 10,6 10,1 - - 0 0 - - N 1011,8 9 0 1,0
20.09.2018 02:00:00 10,9 10,0 - - 9 5 - - WSW 1012,3 12 0 0,8
20.09.2018 01:00:00 11,3 9,8 - - 15 8 - - WSW 1012,4 7 - 0,0
20.09.2018 00:00:00 11,9 9,6 - - 15 8 - - SW 1012,8 19 0 0,0
19.09.2018 23:00:00 12,0 9,4 - - 16 9 - - SW 1012,8 22 0 0,0
19.09.2018 22:00:00 12,1 9,3 - - 11 6 - - WSW 1012,9 21 0 0,0
19.09.2018 21:00:00 12,3 8,1 - - 16 9 - - WSW 1012,6 23 0 0,0
19.09.2018 20:00:00 12,7 8,7 - - 24 13 - - WSW 1012,0 21 0 0,0
19.09.2018 19:00:00 13,6 7,7 - - 21 11 - - WSW 1011,8 23 0 0,0
19.09.2018 18:00:00 15,0 7,5 - - 29 16 46 25 WSW 1011,0 22 48 0,0
19.09.2018 17:00:00 16,7 9,6 - - 34 18 61 33 WSW 1010,1 18 42 0,0
19.09.2018 16:00:00 17,8 10,7 - - 35 19 68 37 WSW 1009,0 16 12 0,0
19.09.2018 15:00:00 18,5 12,6 - - 37 20 65 35 WSW 1007,8 15 30 0,0
19.09.2018 14:00:00 17,5 15,3 - - 35 19 65 35 SW 1007,1 7 0 0,0
19.09.2018 13:00:00 17,7 14,2 - - 39 21 76 41 SW 1006,5 19 0 0,0
19.09.2018 12:00:00 18,8 12,6 - - 41 22 72 39 SW 1006,2 21 18 0,0
19.09.2018 11:00:00 19,0 11,4 - - 39 21 61 33 SW 1006,3 26 36 0,0
19.09.2018 10:00:00 18,3 12,4 16,2 15,7 34 18 57 31 SW 1006,3 23 6 0,0
19.09.2018 09:00:00 17,2 12,2 - - 34 18 52 28 SW 1006,3 25 0 0,0
19.09.2018 08:00:00 16,1 11,8 - - 26 14 - - SW 1007,0 24 0 0,0
19.09.2018 07:00:00 15,3 11,6 - - 16 9 - - SSW 1007,1 23 0 0,0
19.09.2018 06:00:00 14,4 12,1 - - 9 5 - - SSW 1007,9 21 0 0,0
19.09.2018 05:00:00 11,9 11,4 - - 4 2 - - S 1008,2 14 0 0,0
19.09.2018 04:00:00 13,3 12,3 - - 8 4 - - SW 1008,5 19 0 0,0
19.09.2018 03:00:00 13,8 12,9 - - 5 3 - - W 1009,1 20 0 0,0
19.09.2018 02:00:00 14,2 12,9 - - 11 6 - - WSW 1009,2 20 0 0,0
19.09.2018 01:00:00 15,7 14,3 - - 21 11 - - SW 1008,7 22 - 0,0
19.09.2018 00:00:00 15,7 14,8 - - 18 10 - - SW 1008,8 30 0 3,4
18.09.2018 23:00:00 15,8 14,5 - - 22 12 61 33 SW 1008,6 7 0 1,0
18.09.2018 22:00:00 16,6 14,3 - - 31 17 52 28 WSW 1009,2 1,1 0 1,0
18.09.2018 21:00:00 18,5 13,7 - - 24 13 - - SW 1007,8 21 0 0,0
18.09.2018 20:00:00 18,0 13,8 - - 29 16 - - WSW 1007,7 18 0 0,0
18.09.2018 19:00:00 18,2 13,4 - - 26 14 - - SW 1007,7 22 0 0,0
18.09.2018 18:00:00 18,6 13,8 - - 29 16 54 29 SW 1007,8 23 0 0,0
18.09.2018 17:00:00 19,2 13,9 - - 35 19 54 29 WSW 1007,6 24 30 0,0
18.09.2018 16:00:00 19,7 14,6 - - 34 18 54 29 WSW 1007,4 23 12 0,0
18.09.2018 15:00:00 19,8 14,1 - - 35 19 55 30 WSW 1007,1 23 36 0,0
18.09.2018 14:00:00 19,5 14,3 - - 35 19 54 29 WSW 1006,9 30 18 0,0
18.09.2018 13:00:00 19,6 14,5 - - 35 19 57 31 WSW 1006,5 30 36 0,0
18.09.2018 12:00:00 18,8 13,2 - - 41 22 57 31 WSW 1005,9 26 18 0,0
18.09.2018 11:00:00 17,3 12,5 - - 29 16 50 27 W 1005,4 26 0 0,0
18.09.2018 10:00:00 16,8 12,8 16,0 15,7 35 19 65 35 WSW 1003,9 30 0 0,0
18.09.2018 09:00:00 16,8 13,6 - - 41 22 61 33 WSW 1002,4 40 0 0,0
18.09.2018 08:00:00 17,2 14,2 - - 29 16 54 29 SW 1000,9 45 0 0,0
18.09.2018 07:00:00 17,6 14,6 - - 35 19 55 30 SW 999,5 45 0 0,0
18.09.2018 06:00:00 17,9 15,5 - - 16 9 - - SW 998,7 40 0 0,0
18.09.2018 05:00:00 17,5 15,8 - - 21 11 - - S 998,4 27 0 0,0
18.09.2018 04:00:00 17,2 16,0 - - 22 12 - - S 998,8 10 0 0,2
18.09.2018 03:00:00 17,2 15,4 - - 16 9 - - S 999,9 13 0 0,0
18.09.2018 02:00:00 15,5 13,3 - - 5 3 - - SE 1001,7 16 0 0,0
18.09.2018 01:00:00 15,6 12,7 - - 18 10 - - SSE 1002,9 20 - 0,0
18.09.2018 00:00:00 13,0 12,0 - - 5 3 - - SSE 1004,0 18 0 0,0
17.09.2018 23:00:00 11,1 10,4 - - 0 0 - - N 1005,3 13 0 0,0
17.09.2018 22:00:00 12,7 10,4 - - 2 1 - - S 1006,2 18 0 0,0
17.09.2018 21:00:00 16,0 12,7 - - 8 4 - - SSE 1006,8 21 0 0,0
17.09.2018 20:00:00 16,8 13,0 - - 8 4 - - S 1007,5 24 6 0,0
17.09.2018 19:00:00 18,1 13,7 - - 11 6 - - SSW 1007,7 24 54 0,0
17.09.2018 18:00:00 19,0 14,5 - - 22 12 46 25 SSW 1008,2 27 48 0,0
17.09.2018 17:00:00 20,3 15,2 - - 22 12 - - S 1008,5 25 42 0,0
17.09.2018 16:00:00 20,1 16,0 - - 18 10 - - S 1009,6 24 0 0,0
17.09.2018 15:00:00 19,6 16,3 - - 18 10 - - S 1010,5 26 0 0,0
17.09.2018 14:00:00 19,8 16,8 - - 21 11 - - S 1011,0 25 0 0,0
17.09.2018 13:00:00 18,4 16,9 - - 16 9 - - S 1011,8 13 0 0,0
17.09.2018 12:00:00 18,8 16,5 - - 16 9 - - S 1012,3 18 0 0,0
17.09.2018 11:00:00 19,5 16,6 - - 16 9 - - S 1012,6 27 12 0,0
17.09.2018 10:00:00 18,4 16,6 15,7 15,7 11 6 - - S 1012,9 24 0 0,0
17.09.2018 09:00:00 16,9 16,8 - - 8 4 - - S 1013,4 16 0 0,0
17.09.2018 08:00:00 15,9 15,8 - - 0 0 - - N 1013,5 9 0 0,0
17.09.2018 07:00:00 15,3 15,1 - - 0 0 - - N 1013,4 7 0 0,0
17.09.2018 06:00:00 15,3 15,1 - - 2 1 - - ENE 1013,7 7 0 0,0
17.09.2018 05:00:00 15,3 15,1 - - 2 1 - - NE 1014,2 7 0 0,0
17.09.2018 04:00:00 15,3 15,1 - - 0 0 - - N 1014,6 5 0 0,2
17.09.2018 03:00:00 15,4 15,1 - - 0 0 - - N 1015,1 5 0 0,2
17.09.2018 02:00:00 15,6 15,0 - - 5 3 - - W 1015,3 8 0 0,2
17.09.2018 01:00:00 15,8 14,8 - - 9 5 - - W 1015,8 27 - -
17.09.2018 00:00:00 15,8 14,1 - - 16 9 - - WSW 1015,9 30 0 0,0
16.09.2018 23:00:00 16,1 14,8 - - 11 6 - - SW 1015,9 26 0 0,0
16.09.2018 22:00:00 16,5 15,2 - - 8 4 - - WSW 1016,1 27 0 0,0
16.09.2018 21:00:00 17,2 16,0 - - 15 8 - - SW 1015,9 27 0 0,0
16.09.2018 20:00:00 17,0 16,3 - - 11 6 - - WSW 1015,5 24 0 0,0
16.09.2018 19:00:00 17,4 17,1 - - 11 6 - - SSW 1015,1 12 0 0,4
16.09.2018 18:00:00 17,5 17,1 - - 11 6 - - SSW 1014,9 3,4 0 0,8
16.09.2018 17:00:00 17,5 16,8 - - 9 5 - - S 1014,9 2,5 0 0,0
16.09.2018 16:00:00 18,5 17,2 - - 16 9 - - SW 1015,0 18 0 0,2
16.09.2018 15:00:00 17,8 16,7 - - 16 9 - - SW 1015,1 10 0 0,0
16.09.2018 14:00:00 17,9 16,5 - - 18 10 - - SW 1015,2 13 0 0,0
16.09.2018 13:00:00 18,4 15,0 - - 13 7 - - SW 1015,1 8 0 0,0
16.09.2018 12:00:00 16,8 14,1 - - 13 7 - - SSW 1015,5 19 0 0,0
16.09.2018 11:00:00 16,3 13,2 - - 11 6 - - S 1015,6 20 0 0,0
16.09.2018 10:00:00 16,1 12,9 15,4 15,7 8 4 - - SSW 1015,9 21 0 0,0
16.09.2018 09:00:00 15,7 12,2 - - 16 9 - - SW 1015,6 23 0 0,0
16.09.2018 08:00:00 14,1 10,7 - - 9 5 - - S 1015,7 23 0 0,0
16.09.2018 07:00:00 13,3 10,1 - - 8 4 - - ESE 1015,8 22 0 0,0
16.09.2018 06:00:00 13,5 10,2 - - 5 3 - - S 1016,2 22 0 0,0
16.09.2018 05:00:00 13,4 9,7 - - 11 6 - - SSW 1016,4 27 0 0,0
16.09.2018 04:00:00 13,6 9,4 - - 11 6 - - SW 1017,2 29 0 0,0
16.09.2018 03:00:00 13,2 10,8 - - 15 8 - - SW 1017,8 28 0 0,0
16.09.2018 02:00:00 12,4 11,0 - - 5 3 - - S 1018,8 24 0 0,0
16.09.2018 01:00:00 9,3 9,1 - - 4 2 - - SW 1019,9 21 - 0,0
16.09.2018 00:00:00 9,6 9,3 - - 2 1 - - NE 1020,4 19 0 0,0
15.09.2018 23:00:00 9,7 8,8 - - 0 0 - - N 1021,0 19 0 0,0
15.09.2018 22:00:00 11,6 9,6 - - 4 2 - - NE 1021,4 23 0 0,0
15.09.2018 21:00:00 12,2 9,8 - - 5 3 - - WSW 1021,5 22 0 0,0
15.09.2018 20:00:00 12,8 10,3 - - 5 3 - - W 1021,9 20 0 0,0
15.09.2018 19:00:00 15,1 10,7 - - 8 4 - - W 1021,9 21 0 0,0
15.09.2018 18:00:00 16,4 10,4 - - 18 10 - - SW 1021,8 23 0 -
15.09.2018 17:00:00 17,5 10,5 - - 16 9 - - WSW 1021,8 23 0 0,0
15.09.2018 16:00:00 17,2 10,5 - - 18 10 - - SW 1022,3 23 0 0,0
15.09.2018 15:00:00 17,4 10,2 - - 21 11 - - SW 1022,5 24 0 0,0
15.09.2018 14:00:00 17,6 10,4 - - 22 12 - - WSW 1022,8 22 18 0,0
15.09.2018 13:00:00 17,4 10,2 - - 22 12 - - WSW 1023,1 23 24 0,0
15.09.2018 12:00:00 16,9 10,4 - - 24 13 - - SW 1023,2 23 18 0,0
15.09.2018 11:00:00 16,5 12,1 - - 18 10 - - SW 1023,2 19 18 0,0
15.09.2018 10:00:00 14,9 11,7 15,4 15,7 13 7 - - SW 1023,3 18 6 0,0
15.09.2018 09:00:00 13,4 11,4 - - 13 7 - - WSW 1023,2 19 42 0,0
15.09.2018 08:00:00 10,3 10,3 - - 9 5 - - W 1023,1 14 0 0,0
15.09.2018 07:00:00 6,8 6,5 - - 2 1 - - WSW 1022,7 8 0 0,0
15.09.2018 06:00:00 6,8 5,9 - - 0 0 - - N 1022,4 11 0 0,0
15.09.2018 05:00:00 9,6 9,1 - - 8 4 - - WSW 1022,1 14 0 0,0
15.09.2018 04:00:00 9,7 9,0 - - 11 6 - - W 1022,0 12 0 0,0
15.09.2018 03:00:00 10,5 9,0 - - 5 3 - - WSW 1021,7 15 0 0,0
15.09.2018 02:00:00 11,3 9,6 - - 9 5 - - W 1021,5 19 0 0,0
15.09.2018 01:00:00 11,7 10,3 - - 5 3 - - W 1021,7 18 - 0,0
15.09.2018 00:00:00 12,8 11,3 - - 8 4 - - W 1021,6 17 0 0,0
14.09.2018 23:00:00 12,9 10,8 - - 4 2 - - W 1021,2 22 0 0,0
14.09.2018 22:00:00 12,9 10,8 - - 11 6 - - W 1020,8 23 0 0,0
14.09.2018 21:00:00 13,2 10,7 - - 8 4 - - W 1020,4 23 0 0,0
14.09.2018 20:00:00 13,4 10,5 - - 13 7 - - WNW 1020,0 24 0 0,0
14.09.2018 19:00:00 13,5 11,1 - - 11 6 - - W 1019,6 25 0 0,2
14.09.2018 18:00:00 16,1 10,5 - - 13 7 - - W 1018,8 24 30 0,0
14.09.2018 17:00:00 18,0 11,8 - - 24 13 - - W 1018,4 25 24 0,0

tt = Température de l'air
td = dewpoint
tt -20cm = Température de l'air -20cm
tt -100cm = Température de l'air -100cm
ff = Vitesse du vent
fx = gusts
dd = Direction du vent
ppp = reduced air pressure
vv = visibility
sd = Ensoleillement
rr = Quantités de précipitations

stations d'obs. à proximité